This is the latest recevied weather packets stored in our database for station/object KB1FFS. If no packets are shown the sender has not sent any weather packets the latest 10 day(s).
| Time | Temp. | Humidity | Pressure | Rain* | Wind** | Luminosity | Snow |
|---|---|---|---|---|---|---|---|
| 1777729736 | 17.22° C | 73% | 1023.2 hPa | 0 mm | - | 41 W/m² | - |
| 1777729433 | 16.67° C | 75% | 1023.1 hPa | 0 mm | - | 40 W/m² | - |
| 1777729129 | 16.11° C | 77% | 1023.2 hPa | 0 mm | - | 39 W/m² | - |
| 1777728826 | 15.56° C | 79% | 1023 hPa | 0 mm | - | 38 W/m² | - |
| 1777728523 | 15° C | 81% | 1022.9 hPa | 0 mm | - | 37 W/m² | - |
| 1777728221 | 14.44° C | 82% | 1022.8 hPa | 0 mm | - | 36 W/m² | - |
| 1777727917 | 13.89° C | 85% | 1022.9 hPa | 0 mm | - | 35 W/m² | - |
| 1777727614 | 13.33° C | 88% | 1022.8 hPa | 0 mm | - | 34 W/m² | - |
| 1777727311 | 12.78° C | 93% | 1022.8 hPa | 0 mm | - | 33 W/m² | - |
| 1777727009 | 12.22° C | 94% | 1023 hPa | 0 mm | - | 32 W/m² | - |
| 1777726706 | 11.67° C | 95% | 1022.9 hPa | 0 mm | - | 32 W/m² | - |
| 1777726403 | 11.11° C | 95% | 1022.6 hPa | 0 mm | - | 30 W/m² | - |
| 1777726100 | 10.56° C | 95% | 1022.7 hPa | 0 mm | - | 29 W/m² | - |
| 1777725797 | 10° C | 94% | 1022.9 hPa | 0 mm | - | 27 W/m² | - |
| 1777725495 | 10° C | 94% | 1022.7 hPa | 0 mm | - | 25 W/m² | - |
| 1777725192 | 9.44° C | 94% | 1022.6 hPa | 0 mm | - | 23 W/m² | - |
| 1777724888 | 8.89° C | 94% | 1022.2 hPa | 0 mm | - | 22 W/m² | - |
| 1777724584 | 8.89° C | 94% | 1022.3 hPa | 0 mm | - | 20 W/m² | - |
| 1777724283 | 8.89° C | 93% | 1022.1 hPa | 0 mm | - | 18 W/m² | - |
| 1777723980 | 8.89° C | 93% | 1022.1 hPa | 0 mm | - | 16 W/m² | - |
| 1777723677 | 8.89° C | 93% | 1022 hPa | 0 mm | - | 14 W/m² | - |
| 1777723373 | 8.89° C | 93% | 1021.7 hPa | 0 mm | - | 11 W/m² | - |
| 1777723071 | 8.33° C | 93% | 1021.8 hPa | 0 mm | - | 9 W/m² | - |
| 1777722768 | 8.33° C | 93% | 1021.7 hPa | 0 mm | - | 7 W/m² | - |
| 1777722464 | 8.33° C | 93% | 1021.6 hPa | 0 mm | - | 5 W/m² | - |
* Rain latest hour (hover to see other rain measurements)
** Current wind speed in m/s (hover to see current wind gust speed)